Location: Central Falls
(41.8900°N, 71.3929°W)
Time: 13:28:51
(UTC+00:00)

Courier 1B Rocket - Pass Details

Date: 08 December 2023
Orbit: 920 x 1202 km, 28.2° (Epoch: 01 March)

Event Time Altitude Azimuth Distance (km) Brightness Sun altitude
Rises 16:31:42 0° 238° (WSW) 3,810 8.5 25.4°
Reaches altitude 10° 16:35:02 10° 225° (SW) 2,805 8.2 25.4°
Maximum altitude 16:40:12 23° 175° (S) 1,934 9.7 25.4°
Drops below altitude 10° 16:45:09 10° 125° (SE) 2,671 7.8 25.3°
Sets 16:48:14 0° 111° (ESE) 3,586 8.2 25.3°
